This is the latest recevied weather packets stored in our database for station/object W8AN. If no packets are shown the sender has not sent any weather packets the latest 10 day(s).
| Time | Temp. | Humidity | Pressure | Rain* | Wind** | Luminosity | Snow |
|---|---|---|---|---|---|---|---|
| 1777497543 | 11.11° C | 76% | 4265.3 hPa | 0 mm | - | 85 W/m² | - |
| 1777497239 | 11.11° C | 76% | 4265.2 hPa | 0 mm | - | 90 W/m² | - |
| 1777496935 | 11.11° C | 75% | 4265.2 hPa | 0 mm | - | 123 W/m² | - |
| 1777496633 | 11.11° C | 76% | 4265.2 hPa | 0 mm | - | 115 W/m² | - |
| 1777496329 | 11.11° C | 76% | 4265.2 hPa | 0 mm | - | 109 W/m² | - |
| 1777496024 | 11.11° C | 76% | 4265 hPa | 0 mm | - | 110 W/m² | - |
| 1777495721 | 11.67° C | 76% | 4265 hPa | 0 mm | - | 178 W/m² | - |
| 1777495417 | 11.67° C | 77% | 4265 hPa | 0 mm | - | 248 W/m² | - |
| 1777495114 | 11.67° C | 77% | 4264.7 hPa | 0 mm | - | 208 W/m² | - |
| 1777494811 | 11.11° C | 76% | 4264.9 hPa | 0 mm | - | 226 W/m² | - |
| 1777494508 | 11.67° C | 77% | 4265 hPa | 0 mm | - | 150 W/m² | - |
| 1777494205 | 11.11° C | 78% | 4265 hPa | 0 mm | - | 163 W/m² | - |
| 1777493902 | 11.67° C | 77% | 4265.2 hPa | 0 mm | - | 138 W/m² | - |
| 1777493601 | 11.67° C | 76% | 4265 hPa | 0 mm | - | 214 W/m² | - |
| 1777493298 | 11.67° C | 76% | 4265 hPa | 0 mm | - | 299 W/m² | - |
| 1777492994 | 12.22° C | 77% | 4265 hPa | 0 mm | - | 355 W/m² | - |
| 1777492691 | 11.67° C | 77% | 4265.1 hPa | 0 mm | - | 534 W/m² | - |
| 1777492391 | 11.11° C | 79% | 4265 hPa | 0 mm | - | 306 W/m² | - |
| 1777492089 | 11.11° C | 79% | 4265.4 hPa | 0 mm | - | 144 W/m² | - |
| 1777491785 | 11.11° C | 79% | 4265.4 hPa | 0 mm | - | 161 W/m² | - |
| 1777491482 | 11.11° C | 79% | 4265.1 hPa | 0 mm | - | 172 W/m² | - |
| 1777491179 | 10.56° C | 79% | 4265.2 hPa | 0 mm | - | 159 W/m² | - |
| 1777490875 | 11.11° C | 79% | 4265.2 hPa | 0 mm | - | 146 W/m² | - |
| 1777490571 | 11.11° C | 79% | 4265.3 hPa | 0 mm | - | 261 W/m² | - |
| 1777490267 | 11.11° C | 80% | 4265.4 hPa | 0 mm | - | 213 W/m² | - |
* Rain latest hour (hover to see other rain measurements)
** Current wind speed in m/s (hover to see current wind gust speed)